Home > Weather > Amman > Past weeks

Flag for Jordan Weather for the Past 2 Weeks in Amman, Jordan

Now
72 °F

Clear.


Feels Like: 76 °F
Forecast: 55 / 69 °F
Wind: 12 mph from Northwest

Location: Amman Airport

Current Time: May 5, 2016 at 3:40:29 PM

Latest Report: May 5, 2016 at 3:00 PM


Visibility: 4 mi

Pressure: 29.92 "Hg (27.22 "Hg at 816m altitude)

Humidity: 27%

Dew Point: 36 °F

Location of AmmanLocation

Historic Weather in Amman — Graph

°F

Amman Temperature Yesterday

Maximum temperature yesterday: 73 °F (at 2:00 PM)
Minimum temperature yesterday: 57 °F (at 11:00 PM)
Average temperature yesterday: 67 °F

High & Low Weather Summary for the Past Weeks

 TemperatureHumidityPressure
High91 °F (Apr 26, 4:00 PM)83% (May 2, 3:00 AM)30.09 "Hg (May 2, 3:00 AM)
Low52 °F (Apr 28, 6:00 AM)8% (Apr 24, 3:00 PM)29.77 "Hg (Apr 25, 6:00 AM)
Average72 °F34%29.95 "Hg
* Reported Apr 20 2:00 PM — May 5 2:00 PM, Amman, Weather by CustomWeather, © 2016

Note: Actual official high and low records may vary slightly from our data, if they occured in-between our weather recording intervals... More about our weather records

Advertising

Amman Weather History for the Previous 24 Hours

Scroll right to see more
 ConditionsComfort  
Time TempWeatherWind HumidityBarometerVisibility
2:00 PM
Thu, May 5
72 °FClear.14 mph41%29.98 "Hg5 mi
1:00 PM72 °FClear.14 mph38%29.98 "Hg5 mi
12:00 PM70 °FClear.14 mph40%29.98 "Hg5 mi
11:00 AM68 °FHaze.7 mph43%29.95 "Hg3 mi
10:00 AM64 °FHaze.7 mph49%29.95 "Hg3 mi
9:00 AM63 °FHaze.7 mph52%29.95 "Hg3 mi
8:00 AM59 °FHaze.5 mph59%29.98 "Hg3 mi
7:00 AM55 °FHaze.7 mph72%29.98 "Hg2 mi
6:00 AM57 °FPassing clouds.No wind59%29.95 "Hg4 mi
5:00 AM57 °FPassing clouds.No wind59%29.95 "Hg4 mi
4:00 AM57 °FPassing clouds.5 mph59%29.95 "Hg4 mi
3:00 AM57 °FPassing clouds.5 mph59%29.95 "Hg4 mi
2:00 AM57 °FPassing clouds.No wind63%29.95 "Hg4 mi
1:00 AM57 °FPassing clouds.5 mph63%29.98 "Hg4 mi
12:00 AM57 °FPassing clouds.5 mph67%30.01 "Hg4 mi
11:00 PM
Wed, May 4
57 °FPassing clouds.5 mph63%30.01 "Hg4 mi
10:00 PM59 °FPassing clouds.7 mph59%30.04 "Hg4 mi
9:00 PM59 °FPassing clouds.9 mph63%30.01 "Hg4 mi
8:00 PM64 °FBroken clouds.12 mph64%29.95 "Hg3 mi
7:00 PM64 °FBroken clouds.14 mph60%29.95 "Hg3 mi
6:00 PM68 °FBroken clouds.14 mph46%29.95 "Hg3 mi
5:00 PM70 °FSandstorm.17 mph35%29.95 "Hg3 mi
4:00 PM73 °FSandstorm.17 mph31%29.95 "Hg3 mi
3:00 PM73 °FSandstorm.17 mph31%29.95 "Hg3 mi
Weather by CustomWeather, © 2016

See weather overviewHow to use our weather pages